Lake Chatuge Weather Center

Moon Phase Calendar



Lake Chatuge Water Level
Online Cameras

 


      

Current Conditions in Hiawassee
9/17/2021 7:02:15 PM

73°F
Feels Like 74
Clouds
Humidity
87%
Pressure
30.09"
Wind
1 mph (SSE)
Dew Point
69°F
UV Index
0/10 (Low)
Visibility
6 mi

Hourly Forecast

Date & Time Fri, Sep 17
7:00 PM
Fri, Sep 17
8:00 PM
Fri, Sep 17
9:00 PM
Fri, Sep 17
10:00 PM
Fri, Sep 17
11:00 PM
Sat, Sep 18
12:00 AM
Sat, Sep 18
1:00 AM
Sat, Sep 18
2:00 AM
Sat, Sep 18
3:00 AM
Sat, Sep 18
4:00 AM
Sat, Sep 18
5:00 AM
Sat, Sep 18
6:00 AM
Sat, Sep 18
7:00 AM
Sat, Sep 18
8:00 AM
Sat, Sep 18
9:00 AM
Sat, Sep 18
10:00 AM
Sat, Sep 18
11:00 AM
Sat, Sep 18
12:00 PM
Sat, Sep 18
1:00 PM
Sat, Sep 18
2:00 PM
Sat, Sep 18
3:00 PM
Sat, Sep 18
4:00 PM
Sat, Sep 18
5:00 PM
Sat, Sep 18
6:00 PM
Sat, Sep 18
7:00 PM
Sat, Sep 18
8:00 PM
Sat, Sep 18
9:00 PM
Sat, Sep 18
10:00 PM
Sat, Sep 18
11:00 PM
Sun, Sep 19
12:00 AM
Sun, Sep 19
1:00 AM
Sun, Sep 19
2:00 AM
Sun, Sep 19
3:00 AM
Sun, Sep 19
4:00 AM
Sun, Sep 19
5:00 AM
Sun, Sep 19
6:00 AM
Sun, Sep 19
7:00 AM
Sun, Sep 19
8:00 AM
Sun, Sep 19
9:00 AM
Sun, Sep 19
10:00 AM
Sun, Sep 19
11:00 AM
Sun, Sep 19
12:00 PM
Sun, Sep 19
1:00 PM
Sun, Sep 19
2:00 PM
Sun, Sep 19
3:00 PM
Sun, Sep 19
4:00 PM
Sun, Sep 19
5:00 PM
Sun, Sep 19
6:00 PM
Condition
Clouds

Clouds

Clouds

Clouds

Clouds

Clouds

Clouds

Clouds

Clouds

Clouds

Clouds

Clouds

Clouds

Clouds

Clouds

Clouds

Rain

Rain

Rain

Rain

Rain

Rain

Rain

Rain

Rain

Clouds

Clouds

Rain

Clouds

Clouds

Clouds

Clouds

Clouds

Clouds

Clouds

Clouds

Clouds

Clouds

Clouds

Clouds

Clouds

Clouds

Rain

Rain

Rain

Rain

Rain

Rain
Temperature 73°F72°F70°F69°F67°F65°F65°F65°F65°F65°F65°F65°F64°F66°F69°F72°F74°F75°F75°F76°F79°F76°F75°F73°F71°F69°F68°F68°F67°F66°F66°F65°F65°F65°F65°F65°F65°F66°F67°F68°F69°F70°F70°F71°F71°F71°F71°F69°F
Feels Like 74°F73°F71°F70°F68°F66°F66°F66°F66°F66°F66°F65°F65°F66°F70°F73°F75°F76°F76°F77°F79°F78°F76°F75°F72°F70°F69°F68°F68°F67°F66°F66°F66°F66°F65°F65°F66°F67°F68°F69°F70°F71°F71°F72°F72°F73°F72°F70°F
Cloudiness 69%68%43%30%34%31%45%52%100%89%93%93%92%94%99%100%100%100%100%100%100%99%99%99%99%99%100%100%100%100%97%98%100%100%100%100%100%100%100%100%100%100%100%100%100%100%100%100%
Visibility 6 mi6 mi6 mi6 mi6 mi6 mi6 mi6 mi6 mi6 mi6 mi6 mi6 mi6 mi6 mi6 mi6 mi5 mi4 mi6 mi6 mi6 mi6 mi6 mi6 mi6 mi6 mi6 mi6 mi6 mi6 mi6 mi6 mi6 mi6 mi6 mi6 mi6 mi6 mi6 mi6 mi6 mi6 mi6 mi6 mi6 mi6 mi6 mi
Precipitation 62%62%0%0%0%0%0%0%0%0%0%0%0%0%0%4%48%67%75%75%87%91%95%99%99%79%46%44%48%48%44%40%20%20%18%18%18%18%33%34%45%61%65%72%96%100%100%100%
Humidity 87%89%91%93%95%95%95%95%95%95%94%95%95%93%88%82%82%81%85%81%70%82%85%92%93%93%94%94%95%95%95%94%94%94%93%93%92%92%92%91%90%90%90%88%92%92%92%94%
Dew Point 69°F68°F68°F67°F66°F63°F62°F62°F62°F62°F62°F62°F61°F62°F64°F65°F66°F67°F69°F68°F66°F69°F69°F69°F67°F66°F65°F64°F64°F63°F63°F62°F62°F62°F61°F61°F62°F62°F63°F64°F65°F65°F66°F66°F67°F67°F67°F66°F
Pressure 30.09"30.09"30.12"30.12"30.15"30.15"30.15"30.12"30.12"30.12"30.12"30.12"30.15"30.15"30.15"30.15"30.15"30.15"30.15"30.12"30.09"30.09"30.09"30.09"30.09"30.12"30.15"30.15"30.15"30.15"30.15"30.12"30.12"30.12"30.12"30.12"30.12"30.15"30.15"30.15"30.15"30.15"30.15"30.12"30.12"30.12"30.09"30.12"
Wind Speed 2.9 mph3.6 mph3.3 mph3.3 mph3.3 mph3 mph2.3 mph2.7 mph2.8 mph2.4 mph2.9 mph2.2 mph2 mph2.2 mph1.2 mph1.2 mph0.2 mph0.7 mph0.6 mph1.3 mph2.5 mph2.4 mph2 mph1.7 mph1.4 mph1.8 mph1.7 mph2.4 mph2.9 mph2.7 mph2.6 mph3 mph3.1 mph3 mph2.8 mph3.4 mph3.3 mph3.5 mph3.3 mph2.6 mph1.9 mph1.1 mph2.3 mph3 mph3.3 mph3.9 mph3.6 mph3.3 mph
Wind
Direction
118°
ESE
94°
E
100°
E
95°
E
92°
E
95°
E
80°
E
63°
ENE
64°
ENE
66°
ENE
67°
ENE
69°
ENE
65°
ENE
76°
ENE
96°
E
53°
NE
302°
WNW
171°
S
172°
S
100°
E
121°
ESE
149°
SSE
163°
SSE
178°
S
122°
ESE
99°
E
100°
E
81°
E
71°
ENE
65°
ENE
57°
ENE
60°
ENE
66°
ENE
70°
ENE
76°
ENE
67°
ENE
73°
ENE
81°
E
88°
E
100°
E
128°
SE
140°
SE
105°
ESE
124°
SE
119°
ESE
117°
ESE
115°
ESE
115°
ESE

Daily Forecast

Date High Low Precip. Humidity
Today
Sep 17

Rain
77 °F
62 °F
63%
63%
Saturday
Sep 18

Rain
79 °F
64 °F
99%
85%
Sunday
Sep 19

Rain
71 °F
65 °F
100%
88%
Monday
Sep 20

Rain
67 °F
66 °F
100%
97%
Tuesday
Sep 21

Rain
69 °F
66 °F
100%
96%
Wednesday
Sep 22

Rain
70 °F
52 °F
99%
95%
Thursday
Sep 23

Clear
74 °F
48 °F
0%
36%
Friday
Sep 24

Clear
72 °F
49 °F
0%
36%
Saturday
Sep 25

Clouds
74 °F
52 °F
0%
43%
Sunday
Sep 26

Clouds
79 °F
53 °F
0%
39%
Monday
Sep 27

Clear
81 °F
57 °F
0%
39%
Tuesday
Sep 28

Clear
82 °F
56 °F
0%
37%
Wednesday
Sep 29

Clouds
81 °F
60 °F
0%
43%
Thursday
Sep 30

Clear
80 °F
61 °F
0%
41%
Friday
Oct 1

Rain
78 °F
60 °F
92%
45%
Saturday
Oct 2

Rain
69 °F
46 °F
92%
33%

Temperature 8-14 Day Outlook



Precipitation 8-14 Day Outlook




Quick Links
Lake Chatuge News
Lake Chatuge Photos
Lake Chatuge Videos




About Us
Contact Us
Site Map
Search Site
Advertise With Us
   
Chatuge.USLakes.info
THE LAKE CHATUGE WEBSITE

Copyright 2021, Lakes Online
Privacy    |    Legal